This is the latest recevied weather packets stored in our database for station/object WD7OO. If no packets are shown the sender has not sent any weather packets the latest 10 day(s).
| Time | Temp. | Humidity | Pressure | Rain* | Wind** | Luminosity | Snow |
|---|---|---|---|---|---|---|---|
| 1787858765 | 25.56° C | 73% | 1016.8 hPa | 0 mm | - | 680 W/m² | - |
| 1787858461 | 25° C | 71% | 1016.8 hPa | 0 mm | - | 154 W/m² | - |
| 1787858160 | 25.56° C | 71% | 1016.9 hPa | 0 mm | - | 122 W/m² | - |
| 1787857856 | 25° C | 69% | 1016.8 hPa | 0 mm | - | 275 W/m² | - |
| 1787857558 | 25° C | 71% | 1016.9 hPa | 0 mm | - | 143 W/m² | - |
| 1787857251 | 25° C | 70% | 1016.9 hPa | 0 mm | - | 742 W/m² | - |
| 1787856950 | 25.56° C | 68% | 1016.9 hPa | 0 mm | - | 138 W/m² | - |
| 1787856645 | 26.11° C | 71% | 1016.9 hPa | 0 mm | - | 132 W/m² | - |
| 1787856339 | 26.67° C | 66% | 1016.8 hPa | 0 mm | - | 189 W/m² | - |
| 1787856036 | 26.67° C | 67% | 1016.7 hPa | 0 mm | - | 718 W/m² | - |
| 1787855734 | 26.67° C | 69% | 1016.7 hPa | 0 mm | - | 170 W/m² | - |
| 1787855430 | 26.11° C | 66% | 1016.8 hPa | 0 mm | - | 748 W/m² | - |
| 1787855125 | 26.11° C | 67% | 1016.9 hPa | 0 mm | - | 170 W/m² | - |
| 1787854821 | 26.67° C | 63% | 1016.7 hPa | 0 mm | - | 766 W/m² | - |
| 1787854520 | 26.67° C | 65% | 1017 hPa | 0 mm | - | 689 W/m² | - |
| 1787854215 | 27.22° C | 63% | 1017 hPa | 0 mm | - | 239 W/m² | - |
| 1787853910 | 26.67° C | 65% | 1016.9 hPa | 0 mm | - | 736 W/m² | - |
| 1787853609 | 26.11° C | 70% | 1016.9 hPa | 0 mm | - | 754 W/m² | - |
| 1787853308 | 25.56° C | 74% | 1016.8 hPa | 0 mm | - | 741 W/m² | - |
| 1787853003 | 25.56° C | 71% | 1017.1 hPa | 0 mm | - | 499 W/m² | - |
| 1787852697 | 26.11° C | 71% | 1016.9 hPa | 0 mm | - | 220 W/m² | - |
| 1787852396 | 26.11° C | 67% | 1016.9 hPa | 0 mm | - | 162 W/m² | - |
| 1787852096 | 25.56° C | 71% | 1017.1 hPa | 0 mm | - | 698 W/m² | - |
| 1787851790 | 25.56° C | 70% | 1016.9 hPa | 0 mm | - | 188 W/m² | - |
| 1787851485 | 26.11° C | 69% | 1016.8 hPa | 0 mm | - | 186 W/m² | - |
* Rain latest hour (hover to see other rain measurements)
** Current wind speed in m/s (hover to see current wind gust speed)